Aérodrome :







RETROUVEZ-NOUS SUR...

 
LOGIN :

S'inscrire | Disclaimer

   EN    FR    IT 

 









Légende :    VFR   VFR Marginal   IFR   IFR Intensif   IFR Très Intensif
Visi : 
Plafond : 
>= 8 km
>= 3000ft
5 à 8 km
1000 à 3000 ft
1500m à 5 km
500 à 1000 ft
800 à 1500m
200 à 500 ft
< 800m
< 200 ft
Symboles :   Orages  Brouillard  Fortes neiges  Fortes précipitations  Vent > 20 kt






- Altitude de l'aérodrome : 792 ft
- Code IATA : YSC


CYSC - Sherbrooke

DERNIER METAR :
  • 241500Z AUTO 21013G20KT 9SM FEW240 07/M08 A2987 RMK SLP125

METARs EXPIRÉS :
  • 241400Z AUTO 20004KT 170V270 9SM FEW240 05/M07 A2988 RMK SLP131
  • 241300Z AUTO 32003KT 290V350 9SM SCT055 SCT250 M02/M06 A2990 RMK SLP137

TAF TAF CYSC
Valide du 24 à 11h jusqu'au 24 à 23h UTC


241038Z 2411/2423 VRB03KT P6SM BKN070
BECMG 2411/2413 22008KT
FM241300 22012KT P6SM FEW060
BECMG 2421/2423 30008KT RMK FCST BASED ON AUTO OBS. NXT FCST BY 241800Z



MET'MAP, la Météo Aéronautique d'un coup d'oeil ! - Copyright ORBIFLY Décembre 2007 - Disclaimer

ORBIFLY MET'MAP TEAM :

Programmation & Développement : Alexandra Zaïnal
Sur une idée originale de : Baudouin d'Aumeries
Assistance à la programmation : Marc-Olivier Méhu
Soutien technique & logistique : Manuel Goepfert

Contact : metmap@orbifly.com




SOURCES & CREDITS :

   NOAA